Location: Black Creek
(40.9000°S, 175.5500°E)
Time: 04:58:56
(UTC+00:00)

Radarsat Rocket - Pass Details

Date: 04 August 2024
Orbit: 933 x 1492 km, 100.6° (Epoch: 07 September)

Event Time Altitude Azimuth Distance (km) Brightness Sun altitude
Rises 18:46:52 0° 15° (NNE) 3,581 7.4 -6.8°
Reaches altitude 10° 18:49:14 10° 14° (NNE) 2,642 6.7 -6.4°
Maximum altitude 18:55:04 82° 286° (WNW) 977 4.0 -5.3°
Drops below altitude 10° 19:01:18 10° 197° (SSW) 2,821 6.1 -4.2°
Sets 19:03:54 0° 196° (SSW) 3,840 6.8 -3.7°
